CET,Max TemperatureF,Mean TemperatureF,Min TemperatureF,Max Dew PointF,MeanDew PointF,Min DewpointF,Max Humidity, Mean Humidity, Min Humidity, Max Sea Level PressureIn, Mean Sea Level PressureIn, Min Sea Level PressureIn, Max VisibilityMiles, Mean VisibilityMiles, Min VisibilityMiles, Max Wind SpeedMPH, Mean Wind SpeedMPH, Max Gust SpeedMPH,PrecipitationIn, CloudCover, Events, WindDirDegrees
2012-11-1,44,42,41,43,39,30,100,84,61,29.56,29.40,29.30,6,6,6,22,13,41,0.00,7,Rain,149
2012-11-2,51,44,37,43,40,37,100,82,62,29.74,29.63,29.44,6,6,6,13,6,,0.00,6,,184
2012-11-3,59,52,44,46,41,37,93,76,55,29.77,29.70,29.68,6,6,6,20,11,,0.00,6,Rain,185
2012-11-4,55,48,42,48,45,43,100,90,67,29.80,29.69,29.53,6,6,6,12,4,,0.00,6,,149
2012-11-5,48,45,42,46,44,39,100,91,82,29.71,29.58,29.53,6,6,6,13,8,,0.00,7,Rain,243
2012-11-6,46,42,37,41,38,34,100,88,66,30.06,29.91,29.74,6,6,6,20,12,,0.00,6,Rain,257
2012-11-7,46,42,37,43,40,34,93,87,81,30.24,30.11,30.01,6,6,6,21,14,,0.00,8,Rain,246
2012-11-8,51,46,42,45,42,41,93,86,71,30.24,30.12,30.04,6,6,6,12,7,,0.00,6,,244
2012-11-9,50,44,37,43,41,36,93,86,71,30.12,30.07,30.04,6,6,6,8,5,,0.00,6,,231
2012-11-10,48,42,37,41,40,36,93,83,76,30.01,29.87,29.77,6,6,6,20,10,31,0.00,5,,138
2012-11-11,50,47,44,45,43,41,100,87,76,30.04,29.87,29.77,6,6,6,13,8,,0.00,7,Rain,158
2012-11-12,50,47,44,46,46,45,100,97,87,30.36,30.24,30.06,5,4,0,4,2,,0.00,7,Fog-Rain,292
2012-11-13,50,41,32,46,39,32,100,86,54,30.54,30.48,30.36,6,6,0,6,4,,0.00,6,Fog,313
2012-11-14,44,36,28,37,32,28,100,91,66,30.54,30.47,30.39,6,4,2,6,1,,0.00,3,,109
2012-11-15,44,34,24,39,31,25,100,98,76,30.39,30.28,30.21,5,2,0,7,2,,0.00,5,Fog,320
2012-11-16,44,40,35,39,38,36,100,87,81,30.21,30.16,30.09,6,5,2,16,6,,0.00,8,,159
2012-11-17,44,42,41,39,38,36,87,79,71,30.09,30.01,29.95,6,6,6,12,9,,0.00,8,,170
2012-11-18,46,44,39,39,38,37,93,85,71,30.04,29.98,29.95,6,6,5,8,4,,0.00,7,,192
2012-11-19,46,40,33,41,38,34,100,92,76,30.15,30.11,30.06,6,6,4,8,4,,0.00,7,,142
2012-11-20,51,45,39,45,42,37,100,89,71,30.18,30.15,30.12,6,4,3,12,3,,0.00,7,,142
2012-11-21,50,44,39,46,43,39,100,93,82,30.18,30.12,30.06,6,5,2,13,6,,0.00,7,Rain,124
2012-11-22,48,45,42,45,42,39,100,91,82,30.27,30.24,30.15,6,5,2,9,3,,0.00,7,,191
2012-11-23,48,44,41,45,43,41,100,94,87,30.24,30.19,30.15,6,5,2,8,2,,0.00,7,Rain,146
2012-11-24,48,44,39,43,40,39,100,92,81,30.18,30.16,30.12,6,6,5,9,5,,0.00,6,,151
2012-11-25,51,46,41,45,42,39,100,88,71,30.09,30.04,29.98,6,6,5,13,5,,0.00,7,,145
2012-11-26,48,44,39,45,42,39,100,93,87,30.04,29.93,29.77,6,6,5,14,8,,0.00,7,,148
2012-11-27,44,43,42,45,44,43,100,99,93,29.77,29.73,29.68,6,2,1,7,3,,0.00,8,,307
2012-11-28,46,44,42,45,43,43,100,97,87,29.68,29.54,29.39,6,3,0,6,2,,0.00,8,Fog,303
2012-11-29,51,43,35,48,42,34,100,94,82,29.44,29.25,29.15,6,5,3,20,9,,0.00,7,Rain-Snow,230
2012-11-30,37,35,33,34,32,32,93,88,81,29.83,29.65,29.47,6,6,6,17,12,,0.00,7,,275